Powrót do katalogu

STARLINK-37901

AktywnyŁącznośćVLEO
NORAD 69960·PAYLOAD·🇺🇸 United States

Wystrzelony Jul 9, 2026 z Cape Canaveral Space Force Station

Loading…

Następne Przeloty (najbliższe 24 godziny)

TLE

ŚwieżeSource: CelesTrak SupGP

Epoka: Sep 15, 2026, 03:16 UTC

1 69960C 26157T   26258.13659722  .00070081  00000+0  20717-2 0  2581
2 69960  53.1581 358.9927 0001415 108.9865 356.3818 15.34337813    19

Śledź STARLINK-37901 w czasie rzeczywistym z AllMySat

Download on the App Store